Weather History for Whiting Fld NAS, FL

Change the Weather History Date:

Wednesday, August 21, 2013

  Actual Average Record
Temperature  
Mean Temperature 80 °F -  
Max Temperature 91 °F 87 °F 97 °F (2007)
Min Temperature 71 °F 70 °F 69 °F (2001)
Cooling Degree Days 16    
Growing Degree Days 30 (Base 50)    
Moisture  
Dew Point 71 °F    
Average Humidity 85    
Maximum Humidity 94    
Minimum Humidity 55    
Precipitation  
Precipitation 0.83 in - - ()
Sea Level Pressure  
Sea Level Pressure 30.07 in    
Wind  
Wind Speed 3 mph (NE)    
Max Wind Speed 22 mph    
Max Gust Speed 29 mph    
Visibility 8 miles    
Events Fog , Rain , Thunderstorm    
Averages and records for this station are not official NWS values.
T = Trace of Precipitation, MM = Missing Value Source: NWS Daily Summary

Daily Weather History Graph

Daily Weather History Graph

Search for Another Location

Airport:

Trip Planner

Search our weather history database for the weather conditions in past years. The results will help you decide how hot, cold, wet, or windy it might be!

Date:

Astronomy

Aug. 21, 2013 Rise Set
Actual Time 6:18 AM CDT 7:23 PM CDT
Civil Twilight 5:53 AM CDT 7:48 PM CDT
Nautical Twilight 5:23 AM CDT 8:18 PM CDT
Astronomical Twilight 4:52 AM CDT 8:48 PM CDT
Moon 7:41 PM CDT (8/21) 6:51 AM CDT (8/21)
Length of Visible Light 13h 55m
Length of Day
13h 05m
Waxing Gibbous, 99% of the Moon is Illuminated
Aug 21
Waxing Gibbous
Aug 28
Last Quarter
Sep 5
New
Sep 12
First Quarter
Sep 19
Full

Hourly Weather History & Observations

Time (CDT) Temp. Heat Index Dew Point Humidity Pressure Visibility Wind Dir Wind Speed Gust Speed Precip Events Conditions
12:54 AM 73.4 °F - 71.6 °F 94% 30.10 in 0.8 mi Calm Calm - N/A   Overcast
12:56 AM 73.0 °F - 70.0 °F 90% 30.06 in 3.0 mi Calm Calm - N/A   Mostly Cloudy
1:03 AM 73.4 °F - 69.8 °F 88% 30.09 in 0.8 mi Calm Calm - N/A   Mist
1:13 AM 73.4 °F - 69.8 °F 88% 30.09 in 2.0 mi East 3.5 mph - N/A   Mostly Cloudy
1:18 AM 73.4 °F - 69.8 °F 88% 30.09 in 7.0 mi ESE 4.6 mph - N/A   Scattered Clouds
1:56 AM 73.0 °F - 70.0 °F 90% 30.04 in 7.0 mi East 3.5 mph - N/A   Clear
2:52 AM 71.6 °F - 69.8 °F 94% 30.08 in 10.0 mi ESE 5.8 mph - N/A Thunderstorm Thunderstorm
2:56 AM 73.0 °F - 69.1 °F 87% 30.04 in 10.0 mi East 5.8 mph - N/A Thunderstorm Thunderstorm
3:08 AM 73.4 °F - 69.8 °F 88% 30.08 in 10.0 mi East 3.5 mph - N/A   Clear
3:56 AM 73.0 °F - 69.1 °F 87% 30.04 in 10.0 mi Calm Calm - N/A   Clear
4:56 AM 72.0 °F - 69.1 °F 91% 30.05 in 10.0 mi NE 4.6 mph - N/A   Clear
5:56 AM 72.0 °F - 69.1 °F 91% 30.06 in 10.0 mi Calm Calm - N/A   Mostly Cloudy
6:56 AM 73.0 °F - 69.1 °F 87% 30.08 in 10.0 mi North 3.5 mph - 0.00 in Rain Light Rain
7:29 AM 73.4 °F - 69.8 °F 88% 30.12 in 10.0 mi Calm Calm - 0.00 in   Mostly Cloudy
7:56 AM 73.0 °F - 69.1 °F 87% 30.09 in 10.0 mi Calm Calm - 0.00 in   Mostly Cloudy
8:56 AM 75.0 °F - 70.0 °F 84% 30.10 in 10.0 mi Calm Calm - N/A   Mostly Cloudy
9:56 AM 78.1 °F - 71.1 °F 79% 30.11 in 10.0 mi Calm Calm - N/A   Mostly Cloudy
10:56 AM 84.9 °F 92.1 °F 73.9 °F 69% 30.10 in 10.0 mi Variable 5.8 mph - N/A   Mostly Cloudy
11:56 AM 87.1 °F 94.5 °F 73.0 °F 63% 30.09 in 10.0 mi ESE 5.8 mph - N/A   Mostly Cloudy
12:56 PM 90.0 °F 96.9 °F 72.0 °F 55% 30.07 in 10.0 mi Variable 3.5 mph - N/A   Mostly Cloudy
1:56 PM 89.1 °F 97.0 °F 73.0 °F 59% 30.05 in 10.0 mi Calm Calm - N/A   Mostly Cloudy
2:24 PM 84.2 °F 92.3 °F 75.2 °F 74% 30.08 in 8.0 mi North 8.1 mph 17.3 mph 0.00 in Rain Light Rain
2:51 PM 82.4 °F 89.5 °F 75.2 °F 79% 30.07 in 2.5 mi NW 3.5 mph - 0.03 in Rain , Thunderstorm Light Thunderstorms and Rain
2:56 PM 82.0 °F 88.6 °F 75.0 °F 79% 30.04 in 2.0 mi West 6.9 mph - 0.04 in Rain , Thunderstorm Thunderstorms and Rain
3:06 PM 80.6 °F 86.2 °F 75.2 °F 84% 30.07 in 10.0 mi SW 10.4 mph - 0.00 in Rain , Thunderstorm Light Thunderstorms and Rain
3:23 PM 78.8 °F - 73.4 °F 83% 30.08 in 1.0 mi SW 11.5 mph - 0.00 in Rain , Thunderstorm Light Thunderstorms and Rain
3:34 PM 77.0 °F - 73.4 °F 89% 30.10 in 0.5 mi South 21.9 mph 28.8 mph 0.12 in Fog , Rain , Thunderstorm Heavy Thunderstorms and Rain
3:56 PM 72.0 °F - 70.0 °F 93% 30.06 in 0.2 mi North 12.7 mph - 0.76 in Fog , Rain , Thunderstorm Heavy Thunderstorms and Rain
4:18 PM 71.6 °F - 69.8 °F 94% 30.11 in 4.0 mi NNE 8.1 mph - 0.03 in Rain , Thunderstorm Light Thunderstorms and Rain
4:56 PM 71.1 °F - 68.0 °F 90% 30.04 in 10.0 mi North 5.8 mph - 0.03 in Rain Light Rain
5:56 PM 72.0 °F - 70.0 °F 93% 30.04 in 10.0 mi NNW 3.5 mph - 0.00 in Rain Light Rain
6:56 PM 72.0 °F - 69.1 °F 91% 30.06 in 10.0 mi North 3.5 mph - 0.00 in   Mostly Cloudy
7:56 PM 71.1 °F - 68.0 °F 90% 30.05 in 10.0 mi Calm Calm - N/A   Mostly Cloudy
8:56 PM 72.0 °F - 68.0 °F 87% 30.07 in 10.0 mi Calm Calm - N/A   Mostly Cloudy
9:56 PM 72.0 °F - 68.0 °F 87% 30.08 in 10.0 mi Calm Calm - N/A   Mostly Cloudy
10:56 PM 71.1 °F - 68.0 °F 90% 30.08 in 10.0 mi Calm Calm - N/A   Scattered Clouds
11:56 PM 71.1 °F - 68.0 °F 90% 30.07 in 10.0 mi Calm Calm - N/A   Scattered Clouds